This demonstration page uses our WeatherBlox Daily Observations layout. Learn more.

Left ArrowRight Arrow

Hourly Observations for December 28, 2015

Temp ( °F °C ) Dew Point ( °F °C ) Humidity (%) Winds ( mph kmh ) Pressure ( in mb ) Visibility ( mi km ) Precip ( " mm )
12:53 am 00:53 Partly Cloudy 68 20 65 18.3 90 90 ESE 6 9 29.98 1015 10 16 0.00 0.00
1:53 am 01:53 Cloudy with Light Rain 68 20 65 18.3 90 90 VRB 7 11 29.97 1015 7 11 0.00 0.03
2:17 am 02:17 Cloudy with Light Rain 68 20 65 18.3 90 90 S 7 11 30.00 1016 4 6 0.04 1.02
2:24 am 02:24 Cloudy with Heavy Rain 68 20 64 18 88 88 SW 5 7 30.00 1016 2 3 0.00 0.00
2:31 am 02:31 Cloudy with Light Rain 68 20 65 18.3 90 90 E 5 7 30.00 1016 3 5 0.07 1.78
2:45 am 02:45 Cloudy with Light Rain 68 20 65 18.3 90 90 VRB 5 7 30.00 1016 5 8 0.08 2.03
2:53 am 02:53 Cloudy with Light Rain 68 20 65 18.3 90 90 ESE 5 7 29.97 1015 8 13 0.08 2.03
3:53 am 03:53 Cloudy 67 19.4 65 18.3 93 93 ESE 3 6 29.95 1014 10 16 0.00 0.03
4:41 am 04:41 Cloudy 67 19.4 64 17.8 91 91 ESE 6 9 29.97 1015 10 16 0.00 0.03
4:53 am 04:53 Cloudy 67 19.4 64 17.8 91 91 E 5 7 29.93 1014 10 16 0.00 0.03
5:53 am 05:53 Mostly Cloudy 67 19.4 64 17.8 91 91 VRB 6 9 29.92 1013 10 16 0.00 0.00
6:14 am 06:14 Mostly Cloudy 68 20 64 18 88 88 SSE 9 15 29.94 1014 10 16 0.00 0.00
6:26 am 06:26 Cloudy 68 20 64 18 88 88 SE 10 17 29.94 1014 10 16 0.00 0.00
6:53 am 06:53 Cloudy 68 20 65 18.3 90 90 SSE 12 19 29.92 1013 10 16 0.00 0.00
7:53 am 07:53 Cloudy 69 20.6 66 18.9 90 90 SSE 9 15 29.94 1014 10 16 0.00 0.00
8:53 am 08:53 Cloudy with Light Rain 70 21.1 66 18.9 87 87 SSE 8 13 29.94 1014 10 16 0.01 0.25
9:07 am 09:07 Cloudy 70 21.1 66 18.9 87 87 SSE 6 9 29.94 1014 10 16 0.00 0.03
9:46 am 09:46 Cloudy 72 22 66 19 83 83 SSE 9 15 29.94 1014 10 16 0.00 0.00
9:53 am 09:53 Cloudy 71 21.7 65 18.3 81 81 SSE 9 15 29.95 1014 10 16 0.00 0.03
10:53 am 10:53 Cloudy with Light Rain 71 21.7 65 18.3 81 81 SSE 10 17 29.94 1014 10 16 0.01 0.25
11:19 am 11:19 Cloudy 72 22.2 65 18.3 79 79 SSE 12 19 29.94 1014 10 16 0.00 0.03
11:53 am 11:53 Mostly Cloudy 72 22.2 63 17.2 73 73 SSE 14 22 29.92 1013 10 16 0.00 0.03
12:03 pm 12:03 Mostly Cloudy 72 22 63 17 73 73 S 9 15 29.91 1013 10 16 0.00 0.00
12:53 pm 12:53 Mostly Cloudy 72 22.2 62 16.7 71 71 SSE 16 26 29.88 1012 10 16 0.00 0.00
1:53 pm 13:53 Mostly Cloudy 73 22.8 62 16.7 69 69 SSE 15 24 29.84 1010 10 16 0.00 0.00
2:53 pm 14:53 Cloudy with Light Rain 73 22.8 62 16.7 69 69 SSE 13 20 29.81 1010 10 16 0.00 0.03
3:53 pm 15:53 Cloudy with Rain 70 21.1 64 17.8 82 82 SE 9 15 29.80 1009 5 8 0.04 1.02
4:53 pm 16:53 Cloudy with Light Rain 69 20.6 65 18.3 87 87 SSE 10 17 29.81 1010 10 16 0.12 3.05
5:53 pm 17:53 Cloudy with Rain 69 20.6 65 18.3 87 87 SSE 9 15 29.80 1009 6 10 0.05 1.27
6:53 pm 18:53 Cloudy with Heavy Rain 69 20.6 66 18.9 90 90 S 7 11 29.84 1010 3 4 0.23 5.84
7:05 pm 19:05 Cloudy with Heavy Rain 68 20 66 18.9 93 93 S 5 7 29.83 1010 1 2 0.21 5.33
7:09 pm 19:09 Cloudy with Heavy Rain 68 20 66 18.9 93 93 WSW 10 17 29.85 1011 1 2 0.31 7.87
7:19 pm 19:19 Cloudy with Heavy Rain 68 20 66 18.9 93 93 SSW 6 9 29.85 1011 2 3 0.40 10.16
7:26 pm 19:26 Cloudy with Heavy Rain 68 20 66 19 94 94 S 5 7 29.85 1011 3 5 0.00 0.00
7:35 pm 19:35 Cloudy with Rain 68 20 66 18.9 93 93 SSE 7 11 29.85 1011 6 10 0.46 11.68
7:53 pm 19:53 Cloudy with Light Rain 69 20.6 66 18.9 90 90 S 10 17 29.85 1011 4 6 0.57 14.48
8:04 pm 20:04 Cloudy with Heavy Rain 70 21 66 19 88 88 S 10 17 29.85 1011 2 3 0.00 0.00
8:12 pm 20:12 Cloudy with Rain 70 21 66 19 88 88 S 12 19 29.85 1011 4 6 0.00 0.00
8:53 pm 20:53 Cloudy with Rain 68 20 66 18.9 93 93 S 7 11 29.85 1011 8 13 0.17 4.32
9:33 pm 21:33 Cloudy with Light Rain 68 20 66 18.9 93 93 SSE 9 15 29.85 1011 10 16 0.07 1.78
9:53 pm 21:53 Cloudy with Light Rain 69 20.6 65 18.3 87 87 SSW 8 13 29.85 1011 10 16 0.07 1.78
10:00 pm 22:00 Cloudy 68 20 66 19 94 94 S 7 11 29.85 1011 10 16 0.00 0.00
10:53 pm 22:53 Mostly Cloudy 69 20.6 65 18.3 87 87 S 7 11 29.86 1011 10 16 0.00 0.03
11:53 pm 23:53 Cloudy 68 20 65 18.3 90 90 S 7 11 29.86 1011 10 16 0.00 0.00

Powered by AerisWeather